Regional Weather Roundup
Issued by NWS

Home | Current Version | Previous Version | Text Only | Print | Product List | Glossary On
Versions: 1 2 3 4 5 6 7 8 9 10 11 12 13 14 15 16 17 18 19 20 21 22 23 24 25 26 27 28 29 30 31 32 33 34 35 36 37 38 39 40 41 42 43 44 45 46 47 48 49 50
000
ASUS42 KFFC 262210
RWRGA
WEATHER ROUNDUP FOR GEORGIA
NATIONAL WEATHER SERVICE PEACHTREE CITY GA
500 PM EST SUN FEB 26 2017

NOTE: "FAIR" INDICATES FEW OR NO CLOUDS BELOW 12,000 FEET WITH NO
SIGNIFICANT WEATHER AND/OR OBSTRUCTIONS TO VISIBILITY.

* = USE WITH CAUTION. THE STATIONS MARKED WITH AN ASTERISK MAY NOT
REPORT WEATHER SUCH AS PRECIPITATION, FOG, OR THUNDER AND ARE NOT
QUALITY CONTROLLED BY NWS.

THE REMARK "TC" DENOTES TEMPERATURE READING IN DEGREES CELSIUS.

GAZ001>058-262300-
NORTH GEORGIA

CITY           SKY/WX    TMP DP  RH WIND       PRES   REMARKS
ATLANTA        MOSUNNY   62  15  16 CALM      30.16F
ATHENS         SUNNY     63  14  15 SW3       30.17S
CHAMBLEE       SUNNY     61  16  17 N5        30.17S
PEACHTREE CITY SUNNY     64  20  18 SE6       30.17S
ROME           SUNNY     60  20  21 CALM      30.17F
WEST ATLANTA   SUNNY     61  15  16 N3        30.17S
GAINESVILLE    SUNNY     58  14  17 W8        30.18S
CARTERSVILLE   SUNNY     57  18  21 CALM      30.18F


CITY           SKY/WX    TMP DP  RH WIND       PRES   REMARKS
DALTON*        SUNNY     55  21  26 CALM      30.18F
LAWRENCEVILLE* SUNNY     61  18  18 SW6       30.17F
MARIETTA       MOSUNNY   61  16  17 N3        30.17S
KENNESAW*      SUNNY     57  19  23 CALM      30.18F
CANTON*        SUNNY     59 -13   5 CALM      30.18S
$$

GAZ059>098-102>109-262300-
CENTRAL GEORGIA

CITY           SKY/WX    TMP DP  RH WIND       PRES   REMARKS
AUGUSTA-BUSH   SUNNY     67  20  16 NE6       30.18R
AUGUSTA-DANIEL SUNNY     65  13  13 CALM      30.19R
COLUMBUS       SUNNY     65  22  19 VRB6      30.16S
MACON          SUNNY     65  25  22 E3        30.18R
ROBINS AFB     SUNNY     67  19  15 CALM      30.17S


CITY           SKY/WX    TMP DP  RH WIND       PRES   REMARKS
LAGRANGE*      SUNNY     65  31  27 N5        30.16S
SYLVANIA*      SUNNY    N/A N/A N/A CALM      30.20R
MILLEDGEVILLE* SUNNY     64  28  25 CALM      30.18S
$$

GAZ099>101-110>166-262300-
SOUTH GEORGIA

CITY           SKY/WX    TMP DP  RH WIND       PRES   REMARKS
SAVANNAH       SUNNY     68  18  14 NW5       30.20R
VALDOSTA       SUNNY     69  20  15 E5        30.18S
ALMA           SUNNY     66  21  18 CALM      30.19S
ST SIMONS      SUNNY     62  37  39 E10       30.21R
FT STEWART     SUNNY     67  21  17 CALM      30.18R
ALBANY         SUNNY     69  19  15 CALM      30.19S
HUNTER AFB     SUNNY     68  29  23 NW3       30.18R
MOODY AFB      SUNNY     69  20  16 NE6       30.17S
BRUNSWICK      SUNNY     64  41  42 E9        30.21R


CITY           SKY/WX    TMP DP  RH WIND       PRES   REMARKS
BAINBRIDGE*    SUNNY     72  27  18 NE5       30.17S
MOULTRIE*      SUNNY     68  23  18 SE5       30.18S
VIDALIA*       SUNNY     68  32  26 NW3       30.19S
WAYCROSS*      SUNNY     70  27  19 N3        30.20R
DOUGLAS*       SUNNY     68  19  15 E3        30.21R
$$




USA.gov is the U.S. government's official web portal to all federal, state and local government web resources and services.